Flag for Norway Weather past 2 weeks in Stange, Norway

Now
63 °F

Mild.


Feels Like: 63 °F
Forecast: 51 / 58 °F
Wind: 1 mph from Northwest

Location: Haugedalshogda

Current Time: Jul 7, 2015 at 5:34:15 PM

Latest Report: Jul 7, 2015 at 4:00 PM


Visibility: N/A

Pressure: 29.58 "Hg

Humidity: 55%

Dew point: 47 °F

Location of StangeLocation

Historic Weather in Stange — Graph

°F

Stange temperature yesterday

Maximum temperature yesterday: 65 °F (at 6:00 PM)
Minimum temperature yesterday: 55 °F (at 3:00 AM)
Average temperature yesterday: 60 °F

Past Weeks' High & Low Weather Summary

 TemperatureHumidityPressure
High82 °F (Jul 5, 4:00 PM)95% (Jun 23, 4:00 AM)30.32 "Hg (Jun 23, 4:00 AM)
Low43 °F (Jun 27, 5:00 AM)29% (Jul 2, 12:00 PM)29.44 "Hg (Jul 6, 7:00 PM)
Average61 °F68%29.95 "Hg
* Reported Jun 22 4:00 PM — Jul 7 4:00 PM, Stange, Weather by CustomWeather, © 2015

Note: Actual official high and low records may vary slightly from our data, if they occured in-between our weather recording intervals... More about our weather records

Advertising

Stange weather history for previous 24 hours

 ConditionsComfort  
Time TempWeatherWind HumidityBarometerVisibility
4:00 PM
Tue, Jul 7
63 °FMild.1 mph55%29.58 "HgN/A
3:00 PM63 °FMild.3 mph55%29.58 "HgN/A
2:00 PM63 °FMild.5 mph55%29.58 "HgN/A
1:00 PM63 °FMild.5 mph55%29.57 "HgN/A
12:00 PM63 °FMild.5 mph53%29.55 "HgN/A
11:00 AM62 °FRefreshingly cool.No wind57%29.55 "HgN/A
10:00 AM60 °FCool.2 mph62%29.54 "HgN/A
9:00 AM59 °FCool.1 mph61%29.50 "HgN/A
8:00 AM58 °FCool.1 mph69%29.50 "HgN/A
7:00 AM56 °FCool.1 mph77%29.50 "HgN/A
6:00 AM53 °FCool.2 mph90%29.50 "HgN/A
4:00 AM53 °FCool.1 mph93%29.50 "HgN/A
3:00 AM52 °FCool.1 mph93%29.50 "HgN/A
2:00 AM51 °FCool.No wind93%29.47 "HgN/A
1:00 AM51 °FCool.1 mph93%29.47 "HgN/A
12:00 AM52 °FCool.1 mph86%29.47 "HgN/A
10:00 PM
Mon, Jul 6
57 °FCool.3 mph80%29.47 "HgN/A
9:00 PM60 °FCool.5 mph72%29.44 "HgN/A
8:00 PM64 °FMild.6 mph64%29.44 "HgN/A
7:00 PM65 °FMild.5 mph67%29.44 "HgN/A
6:00 PM65 °FMild.5 mph74%29.47 "HgN/A
5:00 PM65 °FMild.6 mph77%29.50 "HgN/A
Weather by CustomWeather, © 2015

See weather overviewHow to use our weather pages